Regional Weather Roundup
Issued by NWS Columbia, SC

Home | Current Version | Previous Version | Text Only | Print | Product List | Glossary On
Versions: 1 2 3 4 5 6 7 8 9 10 11 12 13 14 15 16 17 18 19 20 21 22 23 24 25 26 27 28 29 30 31 32 33 34 35 36 37 38 39 40 41 42 43 44 45 46 47 48 49 50
000
ASUS42 KCAE 221510
RWRCAE
REGIONAL WEATHER ROUNDUP
NATIONAL WEATHER SERVICE COLUMBIA SC
1100 AM EDT TUE JUL 22 2014

NOTE: "FAIR" INDICATES FEW OR NO CLOUDS BELOW 12,000 FEET WITH NO
SIGNIFICANT WEATHER AND/OR OBSTRUCTIONS TO VISIBILITY.

NOT ALL STATIONS ARE QUALITY CONTROLLED BY THE NATIONAL
WEATHER SERVICE. USE DATA WITH CAUTION...ESPECIALLY
DEWPOINT OBSERVATIONS.

SCZ001>056-GAZ040-063>065-077-221600-
...UPSTATE SOUTH CAROLINA...

CITY           SKY/WX    TMP DP  RH WIND       PRES   REMARKS
ANDERSON       CLOUDY    78  69  73 NE3       30.17S
LIBERTY        CLOUDY    76  32  20 MISG      30.18S
SPARTANBURG    PTSUNNY   75  73  94 NE3       30.18S
CLEMSON        CLOUDY    77  68  73 NE5       30.19F
GREENVILLE     CLOUDY    76  70  82 NE8       30.19F
GREENWOOD      PTSUNNY   79  70  74 NE6       30.17S
GREER          CLOUDY    75  70  84 NE7       30.18S
ROCK HILL      CLOUDY    76  71  85 CALM      30.18S
LAURENS        CLOUDY    75 N/A N/A NE6       30.18S


...CENTRAL SOUTH CAROLINA...

CITY           SKY/WX    TMP DP  RH WIND       PRES   REMARKS
COLUMBIA APT   CLOUDY    79  73  82 N5        30.13S HAZE
COLUMBIA OWENS CLOUDY    78  73  84 VRB3      30.15S
DARLINGTON     CLOUDY    77  72  83 N7        30.16F
FLORENCE       CLOUDY    76  73  91 NE7       30.15R
ORANGEBURG     PTSUNNY   83  73  72 VRB3      30.12S
NEWBERRY       LGT RAIN  73  73 100 NE5       30.18S
AIKEN          CLOUDY    79  77  94 E8        30.17S
BARNWELL       FAIR      81  75  83 E5        30.13S
MANNING        PTSUNNY   82 N/A N/A MISG      30.13S
CAMDEN           N/A     75  73  94 E5        30.16S
LANCASTER      CLOUDY    75  75 100 NE6       30.17S
WINNSBORO      CLOUDY    77  73  88 NE7       30.16R


...EASTERN AND COASTAL SOUTH CAROLINA...

CITY           SKY/WX    TMP DP  RH WIND       PRES   REMARKS
N MYRTLE BCH   PTSUNNY   81  75  82 N7        30.12S
CONWAY         CLOUDY    77  77 100 NE3       30.13F FOG
MARION         CLOUDY    75  75 100 NE6       30.15R
HARTSVILLE     CLOUDY    77  75  94 NE6       30.17S
FLORENCE       CLOUDY    76  73  91 NE7       30.15R
DARLINGTON     CLOUDY    77  72  83 N7        30.16F
CHARLESTON APT PTSUNNY   82  76  81 NE6       30.11R
MOUNT PLEASANT RAIN      75  73  94 CALM      30.13S VSB 3/4
WALTERBORO     PTSUNNY   82  79  89 CALM      30.12S
BEAUFORT       PTSUNNY   84  75  74 CALM      30.11S


...EASTERN GEORGIA...

CITY           SKY/WX    TMP DP  RH WIND       PRES   REMARKS
AUGUSTA BUSH F MOSUNNY   78  73  84 CALM      30.12S
AUGUSTA DANIEL CLOUDY    79  73  82 SE3       30.14S
THOMSON        CLOUDY    77  76  97 CALM      30.19S
WASHINGTON     CLOUDY    79  79 100 CALM      30.16R
CLAXTON        FAIR      82  75  78 CALM      30.10F
SYLVANIA       PTSUNNY   81  76  86 N3        30.12F
STATESBORO     CLOUDY    80  76  87 CALM      30.11S
SAVANNAH       PTSUNNY   82  72  71 NW5       30.11S


...SOUTHERN NORTH CAROLINA...

CITY           SKY/WX    TMP DP  RH WIND       PRES   REMARKS
CHARLOTTE      CLOUDY    76  70  82 NE7       30.19S
MONROE         CLOUDY    75  71  87 NE6       30.18R
WADESBORO      CLOUDY    76  73  89 N3        30.17R
ROCKINGHAM       N/A     79  73  83 NE6       30.17R
RUTHERFORDTON  CLOUDY    74  71  89 E6        30.21S
ASHEVILLE      CLOUDY    73  66  78 CALM      30.24F

$$



USA.gov is the U.S. government's official web portal to all federal, state and local government web resources and services.